<?xml version="1.0" encoding="UTF-8"?>
<gpx
version="1.1"
creator="Kashmir3D 9.350 - http://www.kashmir3d.com"
xmlns:xsi="http://www.w3.org/2001/XMLSchema-instance"
xmlns="http://www.topografix.com/GPX/1/1"
xmlns:kashmir3d="http://www.kashmir3d.com/namespace/kashmir3d"
xsi:schemaLocation="http://www.topografix.com/GPX/1/1 http://www.topografix.com/GPX/1/1/gpx.xsd
	http://www.kashmir3d.com/namespace/kashmir3d http://www.kashmir3d.com/namespace/kashmir3d.xsd">
<trk>
 <name>YAMATOKATSURAGISAN.KML(大和葛城山)</name>
 <number>1</number>
 <extensions>
 <kashmir3d:line_color>0000ff</kashmir3d:line_color>
 <kashmir3d:line_size>3</kashmir3d:line_size>
 <kashmir3d:line_style>1</kashmir3d:line_style>
 <kashmir3d:icon>901001</kashmir3d:icon>
 </extensions>
<trkseg>
<trkpt lat="34.444343" lon="135.676783">
 <ele>456.5</ele>
 <time>2020-03-24T13:16:12Z</time>
</trkpt>
<trkpt lat="34.444351" lon="135.677169">
 <ele>459.3</ele>
 <time>2020-03-24T13:16:12Z</time>
</trkpt>
<trkpt lat="34.444334" lon="135.677330">
 <ele>460.3</ele>
 <time>2020-03-24T13:16:12Z</time>
</trkpt>
<trkpt lat="34.444197" lon="135.677631">
 <ele>463.4</ele>
 <time>2020-03-24T13:16:12Z</time>
</trkpt>
<trkpt lat="34.443948" lon="135.678071">
 <ele>466.9</ele>
 <time>2020-03-24T13:16:13Z</time>
</trkpt>
<trkpt lat="34.443828" lon="135.678242">
 <ele>469</ele>
 <time>2020-03-24T13:16:13Z</time>
</trkpt>
<trkpt lat="34.443691" lon="135.678317">
 <ele>470.4</ele>
 <time>2020-03-24T13:16:13Z</time>
</trkpt>
<trkpt lat="34.443296" lon="135.678414">
 <ele>475.2</ele>
 <time>2020-03-24T13:16:13Z</time>
</trkpt>
<trkpt lat="34.442995" lon="135.678564">
 <ele>478.6</ele>
 <time>2020-03-24T13:16:13Z</time>
</trkpt>
<trkpt lat="34.442832" lon="135.678693">
 <ele>479.7</ele>
 <time>2020-03-24T13:16:13Z</time>
</trkpt>
<trkpt lat="34.442764" lon="135.678789">
 <ele>479.8</ele>
 <time>2020-03-24T13:16:13Z</time>
</trkpt>
<trkpt lat="34.442746" lon="135.678918">
 <ele>480.1</ele>
 <time>2020-03-24T13:16:14Z</time>
</trkpt>
<trkpt lat="34.442806" lon="135.679025">
 <ele>481</ele>
 <time>2020-03-24T13:16:14Z</time>
</trkpt>
<trkpt lat="34.442918" lon="135.679036">
 <ele>480.6</ele>
 <time>2020-03-24T13:16:14Z</time>
</trkpt>
<trkpt lat="34.443167" lon="135.678983">
 <ele>483</ele>
 <time>2020-03-24T13:16:14Z</time>
</trkpt>
<trkpt lat="34.443373" lon="135.678940">
 <ele>484.3</ele>
 <time>2020-03-24T13:16:14Z</time>
</trkpt>
<trkpt lat="34.443725" lon="135.679122">
 <ele>487.8</ele>
 <time>2020-03-24T13:16:14Z</time>
</trkpt>
<trkpt lat="34.443931" lon="135.679347">
 <ele>490.7</ele>
 <time>2020-03-24T13:16:14Z</time>
</trkpt>
<trkpt lat="34.444042" lon="135.679562">
 <ele>494.1</ele>
 <time>2020-03-24T13:16:14Z</time>
</trkpt>
<trkpt lat="34.444120" lon="135.679798">
 <ele>497.5</ele>
 <time>2020-03-24T13:16:15Z</time>
</trkpt>
<trkpt lat="34.444120" lon="135.679927">
 <ele>498.8</ele>
 <time>2020-03-24T13:16:15Z</time>
</trkpt>
<trkpt lat="34.443948" lon="135.680495">
 <ele>502.3</ele>
 <time>2020-03-24T13:16:15Z</time>
</trkpt>
<trkpt lat="34.443708" lon="135.681214">
 <ele>509.5</ele>
 <time>2020-03-24T13:16:15Z</time>
</trkpt>
<trkpt lat="34.443528" lon="135.681778">
 <ele>516</ele>
 <time>2020-03-24T13:16:15Z</time>
</trkpt>
<trkpt lat="34.443588" lon="135.681965">
 <ele>517.2</ele>
 <time>2020-03-24T13:16:15Z</time>
</trkpt>
<trkpt lat="34.443648" lon="135.681912">
 <ele>518.8</ele>
 <time>2020-03-24T13:16:15Z</time>
</trkpt>
<trkpt lat="34.443751" lon="135.681944">
 <ele>524</ele>
 <time>2020-03-24T13:16:16Z</time>
</trkpt>
<trkpt lat="34.443879" lon="135.681976">
 <ele>530</ele>
 <time>2020-03-24T13:16:16Z</time>
</trkpt>
<trkpt lat="34.443982" lon="135.681997">
 <ele>533.5</ele>
 <time>2020-03-24T13:16:16Z</time>
</trkpt>
<trkpt lat="34.444042" lon="135.681922">
 <ele>533.7</ele>
 <time>2020-03-24T13:16:16Z</time>
</trkpt>
<trkpt lat="34.444034" lon="135.681847">
 <ele>533.9</ele>
 <time>2020-03-24T13:16:16Z</time>
</trkpt>
<trkpt lat="34.443957" lon="135.681772">
 <ele>530.6</ele>
 <time>2020-03-24T13:16:16Z</time>
</trkpt>
<trkpt lat="34.443922" lon="135.681643">
 <ele>530</ele>
 <time>2020-03-24T13:16:16Z</time>
</trkpt>
<trkpt lat="34.444017" lon="135.681536">
 <ele>538</ele>
 <time>2020-03-24T13:16:17Z</time>
</trkpt>
<trkpt lat="34.444094" lon="135.681515">
 <ele>542.5</ele>
 <time>2020-03-24T13:16:17Z</time>
</trkpt>
<trkpt lat="34.444111" lon="135.681407">
 <ele>540.7</ele>
 <time>2020-03-24T13:16:17Z</time>
</trkpt>
<trkpt lat="34.444154" lon="135.681343">
 <ele>542.2</ele>
 <time>2020-03-24T13:16:17Z</time>
</trkpt>
<trkpt lat="34.444240" lon="135.681354">
 <ele>543.6</ele>
 <time>2020-03-24T13:16:17Z</time>
</trkpt>
<trkpt lat="34.444326" lon="135.681311">
 <ele>543.5</ele>
 <time>2020-03-24T13:16:17Z</time>
</trkpt>
<trkpt lat="34.444377" lon="135.681289">
 <ele>545.5</ele>
 <time>2020-03-24T13:16:17Z</time>
</trkpt>
<trkpt lat="34.444446" lon="135.681289">
 <ele>548</ele>
 <time>2020-03-24T13:16:17Z</time>
</trkpt>
<trkpt lat="34.444523" lon="135.681311">
 <ele>548.9</ele>
 <time>2020-03-24T13:16:18Z</time>
</trkpt>
<trkpt lat="34.444566" lon="135.681375">
 <ele>551.3</ele>
 <time>2020-03-24T13:16:18Z</time>
</trkpt>
<trkpt lat="34.444626" lon="135.681450">
 <ele>550.7</ele>
 <time>2020-03-24T13:16:18Z</time>
</trkpt>
<trkpt lat="34.444712" lon="135.681482">
 <ele>549.2</ele>
 <time>2020-03-24T13:16:18Z</time>
</trkpt>
<trkpt lat="34.444772" lon="135.681568">
 <ele>549.5</ele>
 <time>2020-03-24T13:16:18Z</time>
</trkpt>
<trkpt lat="34.444789" lon="135.681665">
 <ele>551.4</ele>
 <time>2020-03-24T13:16:18Z</time>
</trkpt>
<trkpt lat="34.444798" lon="135.681751">
 <ele>555</ele>
 <time>2020-03-24T13:16:18Z</time>
</trkpt>
<trkpt lat="34.444823" lon="135.681826">
 <ele>557.2</ele>
 <time>2020-03-24T13:16:18Z</time>
</trkpt>
<trkpt lat="34.444849" lon="135.681922">
 <ele>560.7</ele>
 <time>2020-03-24T13:16:19Z</time>
</trkpt>
<trkpt lat="34.444926" lon="135.681976">
 <ele>563.2</ele>
 <time>2020-03-24T13:16:19Z</time>
</trkpt>
<trkpt lat="34.444995" lon="135.681912">
 <ele>558.6</ele>
 <time>2020-03-24T13:16:19Z</time>
</trkpt>
<trkpt lat="34.445064" lon="135.681976">
 <ele>563.1</ele>
 <time>2020-03-24T13:16:19Z</time>
</trkpt>
<trkpt lat="34.445175" lon="135.681987">
 <ele>563.2</ele>
 <time>2020-03-24T13:16:19Z</time>
</trkpt>
<trkpt lat="34.445278" lon="135.682030">
 <ele>565.5</ele>
 <time>2020-03-24T13:16:19Z</time>
</trkpt>
<trkpt lat="34.445364" lon="135.682062">
 <ele>568.5</ele>
 <time>2020-03-24T13:16:19Z</time>
</trkpt>
<trkpt lat="34.445476" lon="135.682062">
 <ele>573.7</ele>
 <time>2020-03-24T13:16:20Z</time>
</trkpt>
<trkpt lat="34.445536" lon="135.682137">
 <ele>578.5</ele>
 <time>2020-03-24T13:16:20Z</time>
</trkpt>
<trkpt lat="34.445536" lon="135.682212">
 <ele>577.3</ele>
 <time>2020-03-24T13:16:20Z</time>
</trkpt>
<trkpt lat="34.445665" lon="135.682330">
 <ele>584.3</ele>
 <time>2020-03-24T13:16:20Z</time>
</trkpt>
<trkpt lat="34.445733" lon="135.682405">
 <ele>588.1</ele>
 <time>2020-03-24T13:16:20Z</time>
</trkpt>
<trkpt lat="34.445811" lon="135.682469">
 <ele>591.9</ele>
 <time>2020-03-24T13:16:20Z</time>
</trkpt>
<trkpt lat="34.445879" lon="135.682512">
 <ele>595.7</ele>
 <time>2020-03-24T13:16:20Z</time>
</trkpt>
<trkpt lat="34.445896" lon="135.682577">
 <ele>597.5</ele>
 <time>2020-03-24T13:16:20Z</time>
</trkpt>
<trkpt lat="34.445862" lon="135.682673">
 <ele>598.9</ele>
 <time>2020-03-24T13:16:21Z</time>
</trkpt>
<trkpt lat="34.445776" lon="135.682705">
 <ele>600</ele>
 <time>2020-03-24T13:16:21Z</time>
</trkpt>
<trkpt lat="34.445690" lon="135.682705">
 <ele>600.9</ele>
 <time>2020-03-24T13:16:21Z</time>
</trkpt>
<trkpt lat="34.445570" lon="135.682652">
 <ele>597.2</ele>
 <time>2020-03-24T13:16:21Z</time>
</trkpt>
<trkpt lat="34.445441" lon="135.682770">
 <ele>609.1</ele>
 <time>2020-03-24T13:16:21Z</time>
</trkpt>
<trkpt lat="34.445347" lon="135.682899">
 <ele>619.4</ele>
 <time>2020-03-24T13:16:21Z</time>
</trkpt>
<trkpt lat="34.445313" lon="135.682963">
 <ele>624.7</ele>
 <time>2020-03-24T13:16:21Z</time>
</trkpt>
<trkpt lat="34.445347" lon="135.683102">
 <ele>632.5</ele>
 <time>2020-03-24T13:16:21Z</time>
</trkpt>
<trkpt lat="34.445381" lon="135.683167">
 <ele>635.7</ele>
 <time>2020-03-24T13:16:22Z</time>
</trkpt>
<trkpt lat="34.445476" lon="135.683167">
 <ele>634.9</ele>
 <time>2020-03-24T13:16:22Z</time>
</trkpt>
<trkpt lat="34.445544" lon="135.683210">
 <ele>637.8</ele>
 <time>2020-03-24T13:16:22Z</time>
</trkpt>
<trkpt lat="34.445605" lon="135.683263">
 <ele>644</ele>
 <time>2020-03-24T13:16:22Z</time>
</trkpt>
<trkpt lat="34.445656" lon="135.683285">
 <ele>643.4</ele>
 <time>2020-03-24T13:16:22Z</time>
</trkpt>
<trkpt lat="34.445708" lon="135.683349">
 <ele>649.9</ele>
 <time>2020-03-24T13:16:22Z</time>
</trkpt>
<trkpt lat="34.445716" lon="135.683414">
 <ele>653.8</ele>
 <time>2020-03-24T13:16:22Z</time>
</trkpt>
<trkpt lat="34.445708" lon="135.683499">
 <ele>662.1</ele>
 <time>2020-03-24T13:16:22Z</time>
</trkpt>
<trkpt lat="34.445708" lon="135.683607">
 <ele>674.6</ele>
 <time>2020-03-24T13:16:23Z</time>
</trkpt>
<trkpt lat="34.445699" lon="135.683682">
 <ele>678</ele>
 <time>2020-03-24T13:16:23Z</time>
</trkpt>
<trkpt lat="34.445699" lon="135.683757">
 <ele>685</ele>
 <time>2020-03-24T13:16:23Z</time>
</trkpt>
<trkpt lat="34.445759" lon="135.683864">
 <ele>694.5</ele>
 <time>2020-03-24T13:16:23Z</time>
</trkpt>
<trkpt lat="34.445811" lon="135.683993">
 <ele>703.1</ele>
 <time>2020-03-24T13:16:23Z</time>
</trkpt>
<trkpt lat="34.445896" lon="135.684143">
 <ele>713.3</ele>
 <time>2020-03-24T13:16:23Z</time>
</trkpt>
<trkpt lat="34.445853" lon="135.684197">
 <ele>714.2</ele>
 <time>2020-03-24T13:16:23Z</time>
</trkpt>
<trkpt lat="34.445896" lon="135.684315">
 <ele>720.5</ele>
 <time>2020-03-24T13:16:23Z</time>
</trkpt>
<trkpt lat="34.445879" lon="135.684390">
 <ele>722.6</ele>
 <time>2020-03-24T13:16:24Z</time>
</trkpt>
<trkpt lat="34.445793" lon="135.684486">
 <ele>721.7</ele>
 <time>2020-03-24T13:16:24Z</time>
</trkpt>
<trkpt lat="34.445742" lon="135.684572">
 <ele>718.5</ele>
 <time>2020-03-24T13:16:24Z</time>
</trkpt>
<trkpt lat="34.445716" lon="135.684647">
 <ele>719.1</ele>
 <time>2020-03-24T13:16:24Z</time>
</trkpt>
<trkpt lat="34.445750" lon="135.684755">
 <ele>720.7</ele>
 <time>2020-03-24T13:16:24Z</time>
</trkpt>
<trkpt lat="34.445793" lon="135.684830">
 <ele>720.6</ele>
 <time>2020-03-24T13:16:24Z</time>
</trkpt>
<trkpt lat="34.445845" lon="135.684883">
 <ele>721.5</ele>
 <time>2020-03-24T13:16:24Z</time>
</trkpt>
<trkpt lat="34.445871" lon="135.684969">
 <ele>720.6</ele>
 <time>2020-03-24T13:16:25Z</time>
</trkpt>
<trkpt lat="34.445896" lon="135.685044">
 <ele>719.7</ele>
 <time>2020-03-24T13:16:25Z</time>
</trkpt>
<trkpt lat="34.445836" lon="135.685184">
 <ele>712.1</ele>
 <time>2020-03-24T13:16:25Z</time>
</trkpt>
<trkpt lat="34.445750" lon="135.685334">
 <ele>713.8</ele>
 <time>2020-03-24T13:16:25Z</time>
</trkpt>
<trkpt lat="34.445716" lon="135.685409">
 <ele>717.1</ele>
 <time>2020-03-24T13:16:25Z</time>
</trkpt>
<trkpt lat="34.445656" lon="135.685484">
 <ele>716.2</ele>
 <time>2020-03-24T13:16:25Z</time>
</trkpt>
<trkpt lat="34.445587" lon="135.685602">
 <ele>719.8</ele>
 <time>2020-03-24T13:16:25Z</time>
</trkpt>
<trkpt lat="34.445536" lon="135.685667">
 <ele>721.6</ele>
 <time>2020-03-24T13:16:25Z</time>
</trkpt>
<trkpt lat="34.445433" lon="135.685731">
 <ele>719.1</ele>
 <time>2020-03-24T13:16:26Z</time>
</trkpt>
<trkpt lat="34.445562" lon="135.685956">
 <ele>728.2</ele>
 <time>2020-03-24T13:16:26Z</time>
</trkpt>
<trkpt lat="34.445673" lon="135.686096">
 <ele>737.4</ele>
 <time>2020-03-24T13:16:26Z</time>
</trkpt>
<trkpt lat="34.445733" lon="135.686160">
 <ele>739.6</ele>
 <time>2020-03-24T13:16:26Z</time>
</trkpt>
<trkpt lat="34.445802" lon="135.686203">
 <ele>742.7</ele>
 <time>2020-03-24T13:16:26Z</time>
</trkpt>
<trkpt lat="34.445896" lon="135.686310">
 <ele>746.8</ele>
 <time>2020-03-24T13:16:26Z</time>
</trkpt>
<trkpt lat="34.445974" lon="135.686428">
 <ele>749.3</ele>
 <time>2020-03-24T13:16:26Z</time>
</trkpt>
<trkpt lat="34.446085" lon="135.686675">
 <ele>755.7</ele>
 <time>2020-03-24T13:16:27Z</time>
</trkpt>
<trkpt lat="34.446188" lon="135.686847">
 <ele>761.1</ele>
 <time>2020-03-24T13:16:27Z</time>
</trkpt>
<trkpt lat="34.446300" lon="135.686965">
 <ele>765.2</ele>
 <time>2020-03-24T13:16:27Z</time>
</trkpt>
<trkpt lat="34.446368" lon="135.687126">
 <ele>768.9</ele>
 <time>2020-03-24T13:16:27Z</time>
</trkpt>
<trkpt lat="34.446497" lon="135.687201">
 <ele>771.5</ele>
 <time>2020-03-24T13:16:27Z</time>
</trkpt>
<trkpt lat="34.446617" lon="135.687201">
 <ele>772.8</ele>
 <time>2020-03-24T13:16:27Z</time>
</trkpt>
<trkpt lat="34.446755" lon="135.687147">
 <ele>774.5</ele>
 <time>2020-03-24T13:16:27Z</time>
</trkpt>
<trkpt lat="34.446849" lon="135.687051">
 <ele>776.8</ele>
 <time>2020-03-24T13:16:27Z</time>
</trkpt>
<trkpt lat="34.446969" lon="135.686986">
 <ele>779.8</ele>
 <time>2020-03-24T13:16:28Z</time>
</trkpt>
<trkpt lat="34.447124" lon="135.686976">
 <ele>787.9</ele>
 <time>2020-03-24T13:16:28Z</time>
</trkpt>
<trkpt lat="34.447313" lon="135.686911">
 <ele>795.7</ele>
 <time>2020-03-24T13:16:28Z</time>
</trkpt>
<trkpt lat="34.447416" lon="135.686911">
 <ele>800</ele>
 <time>2020-03-24T13:16:28Z</time>
</trkpt>
<trkpt lat="34.447587" lon="135.686868">
 <ele>807.3</ele>
 <time>2020-03-24T13:16:28Z</time>
</trkpt>
<trkpt lat="34.447759" lon="135.686847">
 <ele>813.3</ele>
 <time>2020-03-24T13:16:28Z</time>
</trkpt>
<trkpt lat="34.447879" lon="135.686836">
 <ele>819.5</ele>
 <time>2020-03-24T13:16:28Z</time>
</trkpt>
<trkpt lat="34.447991" lon="135.686793">
 <ele>824.8</ele>
 <time>2020-03-24T13:16:28Z</time>
</trkpt>
<trkpt lat="34.448119" lon="135.686772">
 <ele>833.2</ele>
 <time>2020-03-24T13:16:29Z</time>
</trkpt>
<trkpt lat="34.448248" lon="135.686761">
 <ele>838.4</ele>
 <time>2020-03-24T13:16:29Z</time>
</trkpt>
<trkpt lat="34.448394" lon="135.686772">
 <ele>845.6</ele>
 <time>2020-03-24T13:16:29Z</time>
</trkpt>
<trkpt lat="34.448497" lon="135.686750">
 <ele>850.6</ele>
 <time>2020-03-24T13:16:29Z</time>
</trkpt>
<trkpt lat="34.448574" lon="135.686750">
 <ele>854.6</ele>
 <time>2020-03-24T13:16:29Z</time>
</trkpt>
<trkpt lat="34.448669" lon="135.686825">
 <ele>854.6</ele>
 <time>2020-03-24T13:16:29Z</time>
</trkpt>
<trkpt lat="34.448806" lon="135.686879">
 <ele>857.1</ele>
 <time>2020-03-24T13:16:29Z</time>
</trkpt>
<trkpt lat="34.448918" lon="135.686922">
 <ele>858.3</ele>
 <time>2020-03-24T13:16:29Z</time>
</trkpt>
<trkpt lat="34.449046" lon="135.686943">
 <ele>865.6</ele>
 <time>2020-03-24T13:16:30Z</time>
</trkpt>
<trkpt lat="34.449192" lon="135.686943">
 <ele>871</ele>
 <time>2020-03-24T13:16:30Z</time>
</trkpt>
<trkpt lat="34.449304" lon="135.686943">
 <ele>872.9</ele>
 <time>2020-03-24T13:16:30Z</time>
</trkpt>
<trkpt lat="34.449407" lon="135.686933">
 <ele>875.1</ele>
 <time>2020-03-24T13:16:30Z</time>
</trkpt>
<trkpt lat="34.449484" lon="135.686933">
 <ele>876.5</ele>
 <time>2020-03-24T13:16:30Z</time>
</trkpt>
<trkpt lat="34.449561" lon="135.686900">
 <ele>879.7</ele>
 <time>2020-03-24T13:16:30Z</time>
</trkpt>
<trkpt lat="34.449707" lon="135.686922">
 <ele>877.8</ele>
 <time>2020-03-24T13:16:30Z</time>
</trkpt>
<trkpt lat="34.449836" lon="135.686954">
 <ele>876.4</ele>
 <time>2020-03-24T13:16:30Z</time>
</trkpt>
<trkpt lat="34.449948" lon="135.687040">
 <ele>874.8</ele>
 <time>2020-03-24T13:16:31Z</time>
</trkpt>
<trkpt lat="34.450042" lon="135.687104">
 <ele>873.5</ele>
 <time>2020-03-24T13:16:31Z</time>
</trkpt>
<trkpt lat="34.450188" lon="135.687083">
 <ele>871.5</ele>
 <time>2020-03-24T13:16:31Z</time>
</trkpt>
<trkpt lat="34.450317" lon="135.687051">
 <ele>871.2</ele>
 <time>2020-03-24T13:16:31Z</time>
</trkpt>
<trkpt lat="34.450437" lon="135.687051">
 <ele>871</ele>
 <time>2020-03-24T13:16:31Z</time>
</trkpt>
<trkpt lat="34.450540" lon="135.687018">
 <ele>871.5</ele>
 <time>2020-03-24T13:16:31Z</time>
</trkpt>
<trkpt lat="34.450660" lon="135.686965">
 <ele>872.3</ele>
 <time>2020-03-24T13:16:31Z</time>
</trkpt>
<trkpt lat="34.450780" lon="135.686943">
 <ele>873.1</ele>
 <time>2020-03-24T13:16:32Z</time>
</trkpt>
<trkpt lat="34.450883" lon="135.686943">
 <ele>873.6</ele>
 <time>2020-03-24T13:16:32Z</time>
</trkpt>
<trkpt lat="34.450986" lon="135.686986">
 <ele>874.5</ele>
 <time>2020-03-24T13:16:32Z</time>
</trkpt>
<trkpt lat="34.451115" lon="135.687029">
 <ele>876.7</ele>
 <time>2020-03-24T13:16:32Z</time>
</trkpt>
<trkpt lat="34.451244" lon="135.687083">
 <ele>878.8</ele>
 <time>2020-03-24T13:16:32Z</time>
</trkpt>
<trkpt lat="34.451347" lon="135.687104">
 <ele>880.8</ele>
 <time>2020-03-24T13:16:32Z</time>
</trkpt>
<trkpt lat="34.451432" lon="135.687169">
 <ele>875.7</ele>
 <time>2020-03-24T13:16:32Z</time>
</trkpt>
<trkpt lat="34.451510" lon="135.687179">
 <ele>876</ele>
 <time>2020-03-24T13:16:32Z</time>
</trkpt>
<trkpt lat="34.451587" lon="135.687201">
 <ele>875.9</ele>
 <time>2020-03-24T13:16:33Z</time>
</trkpt>
<trkpt lat="34.451673" lon="135.687104">
 <ele>885.7</ele>
 <time>2020-03-24T13:16:33Z</time>
</trkpt>
<trkpt lat="34.451699" lon="135.686986">
 <ele>896</ele>
 <time>2020-03-24T13:16:33Z</time>
</trkpt>
<trkpt lat="34.451699" lon="135.686900">
 <ele>898.9</ele>
 <time>2020-03-24T13:16:33Z</time>
</trkpt>
<trkpt lat="34.451750" lon="135.686836">
 <ele>900.4</ele>
 <time>2020-03-24T13:16:33Z</time>
</trkpt>
<trkpt lat="34.451862" lon="135.686879">
 <ele>902.2</ele>
 <time>2020-03-24T13:16:33Z</time>
</trkpt>
<trkpt lat="34.451947" lon="135.686911">
 <ele>903</ele>
 <time>2020-03-24T13:16:33Z</time>
</trkpt>
<trkpt lat="34.452068" lon="135.686965">
 <ele>903.3</ele>
 <time>2020-03-24T13:16:33Z</time>
</trkpt>
<trkpt lat="34.452162" lon="135.687029">
 <ele>905.3</ele>
 <time>2020-03-24T13:16:34Z</time>
</trkpt>
<trkpt lat="34.452248" lon="135.687061">
 <ele>906.1</ele>
 <time>2020-03-24T13:16:34Z</time>
</trkpt>
<trkpt lat="34.452428" lon="135.687061">
 <ele>909.3</ele>
 <time>2020-03-24T13:16:34Z</time>
</trkpt>
<trkpt lat="34.452428" lon="135.686890">
 <ele>910.4</ele>
 <time>2020-03-24T13:16:34Z</time>
</trkpt>
<trkpt lat="34.452445" lon="135.686793">
 <ele>908.8</ele>
 <time>2020-03-24T13:16:34Z</time>
</trkpt>
<trkpt lat="34.452428" lon="135.686600">
 <ele>905.8</ele>
 <time>2020-03-24T13:16:34Z</time>
</trkpt>
<trkpt lat="34.452428" lon="135.686450">
 <ele>903.8</ele>
 <time>2020-03-24T13:16:34Z</time>
</trkpt>
<trkpt lat="34.452437" lon="135.686343">
 <ele>901.5</ele>
 <time>2020-03-24T13:16:35Z</time>
</trkpt>
<trkpt lat="34.452505" lon="135.686246">
 <ele>898.7</ele>
 <time>2020-03-24T13:16:35Z</time>
</trkpt>
<trkpt lat="34.452583" lon="135.686203">
 <ele>895.6</ele>
 <time>2020-03-24T13:16:35Z</time>
</trkpt>
<trkpt lat="34.452660" lon="135.686085">
 <ele>893.8</ele>
 <time>2020-03-24T13:16:35Z</time>
</trkpt>
<trkpt lat="34.452746" lon="135.685988">
 <ele>895.7</ele>
 <time>2020-03-24T13:16:35Z</time>
</trkpt>
<trkpt lat="34.452806" lon="135.685913">
 <ele>897.7</ele>
 <time>2020-03-24T13:16:35Z</time>
</trkpt>
<trkpt lat="34.452934" lon="135.685849">
 <ele>900</ele>
 <time>2020-03-24T13:16:35Z</time>
</trkpt>
<trkpt lat="34.453046" lon="135.685667">
 <ele>902.5</ele>
 <time>2020-03-24T13:16:35Z</time>
</trkpt>
<trkpt lat="34.453166" lon="135.685581">
 <ele>903</ele>
 <time>2020-03-24T13:16:36Z</time>
</trkpt>
<trkpt lat="34.453278" lon="135.685645">
 <ele>904.4</ele>
 <time>2020-03-24T13:16:36Z</time>
</trkpt>
<trkpt lat="34.453389" lon="135.685527">
 <ele>905.7</ele>
 <time>2020-03-24T13:16:36Z</time>
</trkpt>
<trkpt lat="34.453484" lon="135.685409">
 <ele>908.8</ele>
 <time>2020-03-24T13:16:36Z</time>
</trkpt>
<trkpt lat="34.453484" lon="135.685323">
 <ele>911.1</ele>
 <time>2020-03-24T13:16:36Z</time>
</trkpt>
<trkpt lat="34.453475" lon="135.685270">
 <ele>913.3</ele>
 <time>2020-03-24T13:16:36Z</time>
</trkpt>
<trkpt lat="34.453475" lon="135.685173">
 <ele>915.1</ele>
 <time>2020-03-24T13:16:36Z</time>
</trkpt>
<trkpt lat="34.453527" lon="135.685077">
 <ele>918.6</ele>
 <time>2020-03-24T13:16:36Z</time>
</trkpt>
<trkpt lat="34.453613" lon="135.685141">
 <ele>921.8</ele>
 <time>2020-03-24T13:16:37Z</time>
</trkpt>
<trkpt lat="34.453681" lon="135.685141">
 <ele>923.5</ele>
 <time>2020-03-24T13:16:37Z</time>
</trkpt>
<trkpt lat="34.453681" lon="135.685077">
 <ele>924.6</ele>
 <time>2020-03-24T13:16:37Z</time>
</trkpt>
<trkpt lat="34.453784" lon="135.685001">
 <ele>929</ele>
 <time>2020-03-24T13:16:37Z</time>
</trkpt>
<trkpt lat="34.453913" lon="135.684873">
 <ele>932.4</ele>
 <time>2020-03-24T13:16:37Z</time>
</trkpt>
<trkpt lat="34.453956" lon="135.684722">
 <ele>933.6</ele>
 <time>2020-03-24T13:16:37Z</time>
</trkpt>
<trkpt lat="34.453922" lon="135.684497">
 <ele>934.8</ele>
 <time>2020-03-24T13:16:37Z</time>
</trkpt>
<trkpt lat="34.453896" lon="135.684293">
 <ele>935.8</ele>
 <time>2020-03-24T13:16:37Z</time>
</trkpt>
<trkpt lat="34.453930" lon="135.684165">
 <ele>936.8</ele>
 <time>2020-03-24T13:16:38Z</time>
</trkpt>
<trkpt lat="34.454042" lon="135.684068">
 <ele>938</ele>
 <time>2020-03-24T13:16:38Z</time>
</trkpt>
<trkpt lat="34.454145" lon="135.683929">
 <ele>938.1</ele>
 <time>2020-03-24T13:16:38Z</time>
</trkpt>
<trkpt lat="34.454222" lon="135.683746">
 <ele>936.2</ele>
 <time>2020-03-24T13:16:38Z</time>
</trkpt>
<trkpt lat="34.454299" lon="135.683617">
 <ele>938.5</ele>
 <time>2020-03-24T13:16:38Z</time>
</trkpt>
<trkpt lat="34.454351" lon="135.683489">
 <ele>942.2</ele>
 <time>2020-03-24T13:16:38Z</time>
</trkpt>
<trkpt lat="34.454394" lon="135.683338">
 <ele>943.8</ele>
 <time>2020-03-24T13:16:38Z</time>
</trkpt>
<trkpt lat="34.454462" lon="135.683242">
 <ele>943.9</ele>
 <time>2020-03-24T13:16:39Z</time>
</trkpt>
<trkpt lat="34.454522" lon="135.683220">
 <ele>944.5</ele>
 <time>2020-03-24T13:16:39Z</time>
</trkpt>
<trkpt lat="34.454591" lon="135.683274">
 <ele>945.6</ele>
 <time>2020-03-24T13:16:39Z</time>
</trkpt>
<trkpt lat="34.454694" lon="135.683338">
 <ele>946.4</ele>
 <time>2020-03-24T13:16:39Z</time>
</trkpt>
<trkpt lat="34.454857" lon="135.683285">
 <ele>947.8</ele>
 <time>2020-03-24T13:16:39Z</time>
</trkpt>
<trkpt lat="34.455003" lon="135.683242">
 <ele>950.5</ele>
 <time>2020-03-24T13:16:39Z</time>
</trkpt>
<trkpt lat="34.455175" lon="135.683113">
 <ele>955.9</ele>
 <time>2020-03-24T13:16:39Z</time>
</trkpt>
<trkpt lat="34.455346" lon="135.683017">
 <ele>956.5</ele>
 <time>2020-03-24T13:16:39Z</time>
</trkpt>
<trkpt lat="34.455484" lon="135.682899">
 <ele>954.8</ele>
 <time>2020-03-24T13:16:40Z</time>
</trkpt>
<trkpt lat="34.455621" lon="135.682759">
 <ele>954.7</ele>
 <time>2020-03-24T13:16:40Z</time>
</trkpt>
<trkpt lat="34.455818" lon="135.682620">
 <ele>956.1</ele>
 <time>2020-03-24T13:16:40Z</time>
</trkpt>
<trkpt lat="34.455964" lon="135.682480">
 <ele>956.6</ele>
 <time>2020-03-24T13:16:40Z</time>
</trkpt>
<trkpt lat="34.456158" lon="135.682317">
 <ele>958.5</ele>
 <time>2020-03-24T13:16:40Z</time>
</trkpt>
<trkpt lat="34.455964" lon="135.682480">
 <ele>956.6</ele>
 <time>2020-03-24T13:16:40Z</time>
</trkpt>
<trkpt lat="34.455818" lon="135.682620">
 <ele>956.1</ele>
 <time>2020-03-24T13:16:40Z</time>
</trkpt>
<trkpt lat="34.455621" lon="135.682759">
 <ele>954.7</ele>
 <time>2020-03-24T13:16:40Z</time>
</trkpt>
<trkpt lat="34.455484" lon="135.682899">
 <ele>954.8</ele>
 <time>2020-03-24T13:16:41Z</time>
</trkpt>
<trkpt lat="34.455346" lon="135.683017">
 <ele>956.5</ele>
 <time>2020-03-24T13:16:41Z</time>
</trkpt>
<trkpt lat="34.455175" lon="135.683113">
 <ele>955.9</ele>
 <time>2020-03-24T13:16:41Z</time>
</trkpt>
<trkpt lat="34.455003" lon="135.683242">
 <ele>950.5</ele>
 <time>2020-03-24T13:16:41Z</time>
</trkpt>
<trkpt lat="34.454857" lon="135.683285">
 <ele>947.8</ele>
 <time>2020-03-24T13:16:41Z</time>
</trkpt>
<trkpt lat="34.454694" lon="135.683338">
 <ele>946.4</ele>
 <time>2020-03-24T13:16:41Z</time>
</trkpt>
<trkpt lat="34.454591" lon="135.683274">
 <ele>945.6</ele>
 <time>2020-03-24T13:16:41Z</time>
</trkpt>
<trkpt lat="34.454522" lon="135.683220">
 <ele>944.5</ele>
 <time>2020-03-24T13:16:41Z</time>
</trkpt>
<trkpt lat="34.454462" lon="135.683242">
 <ele>943.9</ele>
 <time>2020-03-24T13:16:42Z</time>
</trkpt>
<trkpt lat="34.454394" lon="135.683338">
 <ele>943.8</ele>
 <time>2020-03-24T13:16:42Z</time>
</trkpt>
<trkpt lat="34.454351" lon="135.683489">
 <ele>942.2</ele>
 <time>2020-03-24T13:16:42Z</time>
</trkpt>
<trkpt lat="34.454299" lon="135.683617">
 <ele>938.5</ele>
 <time>2020-03-24T13:16:42Z</time>
</trkpt>
<trkpt lat="34.454222" lon="135.683746">
 <ele>936.2</ele>
 <time>2020-03-24T13:16:42Z</time>
</trkpt>
<trkpt lat="34.454145" lon="135.683929">
 <ele>938.1</ele>
 <time>2020-03-24T13:16:42Z</time>
</trkpt>
<trkpt lat="34.454042" lon="135.684068">
 <ele>938</ele>
 <time>2020-03-24T13:16:42Z</time>
</trkpt>
<trkpt lat="34.453930" lon="135.684165">
 <ele>936.8</ele>
 <time>2020-03-24T13:16:43Z</time>
</trkpt>
<trkpt lat="34.453896" lon="135.684293">
 <ele>935.8</ele>
 <time>2020-03-24T13:16:43Z</time>
</trkpt>
<trkpt lat="34.453922" lon="135.684497">
 <ele>934.8</ele>
 <time>2020-03-24T13:16:43Z</time>
</trkpt>
<trkpt lat="34.453956" lon="135.684722">
 <ele>933.6</ele>
 <time>2020-03-24T13:16:43Z</time>
</trkpt>
<trkpt lat="34.453913" lon="135.684873">
 <ele>932.4</ele>
 <time>2020-03-24T13:16:43Z</time>
</trkpt>
<trkpt lat="34.453784" lon="135.685001">
 <ele>929</ele>
 <time>2020-03-24T13:16:43Z</time>
</trkpt>
<trkpt lat="34.453681" lon="135.685077">
 <ele>924.6</ele>
 <time>2020-03-24T13:16:43Z</time>
</trkpt>
<trkpt lat="34.453681" lon="135.685141">
 <ele>923.5</ele>
 <time>2020-03-24T13:16:43Z</time>
</trkpt>
<trkpt lat="34.453613" lon="135.685141">
 <ele>921.8</ele>
 <time>2020-03-24T13:16:44Z</time>
</trkpt>
<trkpt lat="34.453527" lon="135.685077">
 <ele>918.6</ele>
 <time>2020-03-24T13:16:44Z</time>
</trkpt>
<trkpt lat="34.453475" lon="135.685173">
 <ele>915.1</ele>
 <time>2020-03-24T13:16:44Z</time>
</trkpt>
<trkpt lat="34.453475" lon="135.685270">
 <ele>913.3</ele>
 <time>2020-03-24T13:16:44Z</time>
</trkpt>
<trkpt lat="34.453484" lon="135.685323">
 <ele>911.1</ele>
 <time>2020-03-24T13:16:44Z</time>
</trkpt>
<trkpt lat="34.453484" lon="135.685409">
 <ele>908.8</ele>
 <time>2020-03-24T13:16:44Z</time>
</trkpt>
<trkpt lat="34.453389" lon="135.685527">
 <ele>905.7</ele>
 <time>2020-03-24T13:16:44Z</time>
</trkpt>
<trkpt lat="34.453278" lon="135.685645">
 <ele>904.4</ele>
 <time>2020-03-24T13:16:44Z</time>
</trkpt>
<trkpt lat="34.453166" lon="135.685581">
 <ele>903</ele>
 <time>2020-03-24T13:16:45Z</time>
</trkpt>
<trkpt lat="34.453046" lon="135.685667">
 <ele>902.5</ele>
 <time>2020-03-24T13:16:45Z</time>
</trkpt>
<trkpt lat="34.452934" lon="135.685849">
 <ele>900</ele>
 <time>2020-03-24T13:16:45Z</time>
</trkpt>
<trkpt lat="34.452806" lon="135.685913">
 <ele>897.7</ele>
 <time>2020-03-24T13:16:45Z</time>
</trkpt>
<trkpt lat="34.452746" lon="135.685988">
 <ele>895.7</ele>
 <time>2020-03-24T13:16:45Z</time>
</trkpt>
<trkpt lat="34.452660" lon="135.686085">
 <ele>893.8</ele>
 <time>2020-03-24T13:16:45Z</time>
</trkpt>
<trkpt lat="34.452583" lon="135.686203">
 <ele>895.6</ele>
 <time>2020-03-24T13:16:45Z</time>
</trkpt>
<trkpt lat="34.452505" lon="135.686246">
 <ele>898.7</ele>
 <time>2020-03-24T13:16:45Z</time>
</trkpt>
<trkpt lat="34.452437" lon="135.686343">
 <ele>901.5</ele>
 <time>2020-03-24T13:16:46Z</time>
</trkpt>
<trkpt lat="34.452428" lon="135.686450">
 <ele>903.8</ele>
 <time>2020-03-24T13:16:46Z</time>
</trkpt>
<trkpt lat="34.452428" lon="135.686600">
 <ele>905.8</ele>
 <time>2020-03-24T13:16:46Z</time>
</trkpt>
<trkpt lat="34.452445" lon="135.686793">
 <ele>908.8</ele>
 <time>2020-03-24T13:16:46Z</time>
</trkpt>
<trkpt lat="34.452428" lon="135.686890">
 <ele>910.4</ele>
 <time>2020-03-24T13:16:46Z</time>
</trkpt>
<trkpt lat="34.452428" lon="135.687061">
 <ele>909.3</ele>
 <time>2020-03-24T13:16:46Z</time>
</trkpt>
<trkpt lat="34.452248" lon="135.687061">
 <ele>906.1</ele>
 <time>2020-03-24T13:16:46Z</time>
</trkpt>
<trkpt lat="34.452162" lon="135.687029">
 <ele>905.3</ele>
 <time>2020-03-24T13:16:47Z</time>
</trkpt>
<trkpt lat="34.452068" lon="135.686965">
 <ele>903.3</ele>
 <time>2020-03-24T13:16:47Z</time>
</trkpt>
<trkpt lat="34.451947" lon="135.686911">
 <ele>903</ele>
 <time>2020-03-24T13:16:47Z</time>
</trkpt>
<trkpt lat="34.451862" lon="135.686879">
 <ele>902.2</ele>
 <time>2020-03-24T13:16:47Z</time>
</trkpt>
<trkpt lat="34.451750" lon="135.686836">
 <ele>900.4</ele>
 <time>2020-03-24T13:16:47Z</time>
</trkpt>
<trkpt lat="34.451699" lon="135.686900">
 <ele>898.9</ele>
 <time>2020-03-24T13:16:47Z</time>
</trkpt>
<trkpt lat="34.451699" lon="135.686986">
 <ele>896</ele>
 <time>2020-03-24T13:16:47Z</time>
</trkpt>
<trkpt lat="34.451673" lon="135.687104">
 <ele>885.7</ele>
 <time>2020-03-24T13:16:47Z</time>
</trkpt>
<trkpt lat="34.451587" lon="135.687201">
 <ele>875.9</ele>
 <time>2020-03-24T13:16:48Z</time>
</trkpt>
<trkpt lat="34.451510" lon="135.687179">
 <ele>876</ele>
 <time>2020-03-24T13:16:48Z</time>
</trkpt>
<trkpt lat="34.451432" lon="135.687169">
 <ele>875.7</ele>
 <time>2020-03-24T13:16:48Z</time>
</trkpt>
<trkpt lat="34.451347" lon="135.687104">
 <ele>880.8</ele>
 <time>2020-03-24T13:16:48Z</time>
</trkpt>
<trkpt lat="34.451244" lon="135.687083">
 <ele>878.8</ele>
 <time>2020-03-24T13:16:48Z</time>
</trkpt>
<trkpt lat="34.451115" lon="135.687029">
 <ele>876.7</ele>
 <time>2020-03-24T13:16:48Z</time>
</trkpt>
<trkpt lat="34.450986" lon="135.686986">
 <ele>874.5</ele>
 <time>2020-03-24T13:16:48Z</time>
</trkpt>
<trkpt lat="34.450883" lon="135.686943">
 <ele>873.6</ele>
 <time>2020-03-24T13:16:48Z</time>
</trkpt>
<trkpt lat="34.450780" lon="135.686943">
 <ele>873.1</ele>
 <time>2020-03-24T13:16:49Z</time>
</trkpt>
<trkpt lat="34.450660" lon="135.686965">
 <ele>872.3</ele>
 <time>2020-03-24T13:16:49Z</time>
</trkpt>
<trkpt lat="34.450540" lon="135.687018">
 <ele>871.5</ele>
 <time>2020-03-24T13:16:49Z</time>
</trkpt>
<trkpt lat="34.450437" lon="135.687051">
 <ele>871</ele>
 <time>2020-03-24T13:16:49Z</time>
</trkpt>
<trkpt lat="34.450317" lon="135.687051">
 <ele>871.2</ele>
 <time>2020-03-24T13:16:49Z</time>
</trkpt>
<trkpt lat="34.450188" lon="135.687083">
 <ele>871.5</ele>
 <time>2020-03-24T13:16:49Z</time>
</trkpt>
<trkpt lat="34.450042" lon="135.687104">
 <ele>873.5</ele>
 <time>2020-03-24T13:16:49Z</time>
</trkpt>
<trkpt lat="34.449948" lon="135.687040">
 <ele>874.8</ele>
 <time>2020-03-24T13:16:49Z</time>
</trkpt>
<trkpt lat="34.449836" lon="135.686954">
 <ele>876.4</ele>
 <time>2020-03-24T13:16:50Z</time>
</trkpt>
<trkpt lat="34.449707" lon="135.686922">
 <ele>877.8</ele>
 <time>2020-03-24T13:16:50Z</time>
</trkpt>
<trkpt lat="34.449561" lon="135.686900">
 <ele>879.7</ele>
 <time>2020-03-24T13:16:50Z</time>
</trkpt>
<trkpt lat="34.449484" lon="135.686933">
 <ele>876.5</ele>
 <time>2020-03-24T13:16:50Z</time>
</trkpt>
<trkpt lat="34.449407" lon="135.686933">
 <ele>875.1</ele>
 <time>2020-03-24T13:16:50Z</time>
</trkpt>
<trkpt lat="34.449304" lon="135.686943">
 <ele>872.9</ele>
 <time>2020-03-24T13:16:50Z</time>
</trkpt>
<trkpt lat="34.449192" lon="135.686943">
 <ele>871</ele>
 <time>2020-03-24T13:16:50Z</time>
</trkpt>
<trkpt lat="34.449046" lon="135.686943">
 <ele>865.6</ele>
 <time>2020-03-24T13:16:51Z</time>
</trkpt>
<trkpt lat="34.448918" lon="135.686922">
 <ele>858.3</ele>
 <time>2020-03-24T13:16:51Z</time>
</trkpt>
<trkpt lat="34.448806" lon="135.686879">
 <ele>857.1</ele>
 <time>2020-03-24T13:16:51Z</time>
</trkpt>
<trkpt lat="34.448669" lon="135.686825">
 <ele>854.6</ele>
 <time>2020-03-24T13:16:51Z</time>
</trkpt>
<trkpt lat="34.448574" lon="135.686750">
 <ele>854.6</ele>
 <time>2020-03-24T13:16:51Z</time>
</trkpt>
<trkpt lat="34.448497" lon="135.686750">
 <ele>850.6</ele>
 <time>2020-03-24T13:16:51Z</time>
</trkpt>
<trkpt lat="34.448394" lon="135.686772">
 <ele>845.6</ele>
 <time>2020-03-24T13:16:51Z</time>
</trkpt>
<trkpt lat="34.448248" lon="135.686761">
 <ele>838.4</ele>
 <time>2020-03-24T13:16:51Z</time>
</trkpt>
<trkpt lat="34.448119" lon="135.686772">
 <ele>833.2</ele>
 <time>2020-03-24T13:16:52Z</time>
</trkpt>
<trkpt lat="34.447991" lon="135.686793">
 <ele>824.8</ele>
 <time>2020-03-24T13:16:52Z</time>
</trkpt>
<trkpt lat="34.447879" lon="135.686836">
 <ele>819.5</ele>
 <time>2020-03-24T13:16:52Z</time>
</trkpt>
<trkpt lat="34.447759" lon="135.686847">
 <ele>813.3</ele>
 <time>2020-03-24T13:16:52Z</time>
</trkpt>
<trkpt lat="34.447587" lon="135.686868">
 <ele>807.3</ele>
 <time>2020-03-24T13:16:52Z</time>
</trkpt>
<trkpt lat="34.447416" lon="135.686911">
 <ele>800</ele>
 <time>2020-03-24T13:16:52Z</time>
</trkpt>
<trkpt lat="34.447313" lon="135.686911">
 <ele>795.7</ele>
 <time>2020-03-24T13:16:52Z</time>
</trkpt>
<trkpt lat="34.447124" lon="135.686976">
 <ele>787.9</ele>
 <time>2020-03-24T13:16:52Z</time>
</trkpt>
<trkpt lat="34.446969" lon="135.686986">
 <ele>779.8</ele>
 <time>2020-03-24T13:16:53Z</time>
</trkpt>
<trkpt lat="34.446849" lon="135.687051">
 <ele>776.8</ele>
 <time>2020-03-24T13:16:53Z</time>
</trkpt>
<trkpt lat="34.446755" lon="135.687147">
 <ele>774.5</ele>
 <time>2020-03-24T13:16:53Z</time>
</trkpt>
<trkpt lat="34.446617" lon="135.687201">
 <ele>772.8</ele>
 <time>2020-03-24T13:16:53Z</time>
</trkpt>
<trkpt lat="34.446497" lon="135.687201">
 <ele>771.5</ele>
 <time>2020-03-24T13:16:53Z</time>
</trkpt>
<trkpt lat="34.446368" lon="135.687126">
 <ele>768.9</ele>
 <time>2020-03-24T13:16:53Z</time>
</trkpt>
<trkpt lat="34.446300" lon="135.686965">
 <ele>765.2</ele>
 <time>2020-03-24T13:16:53Z</time>
</trkpt>
<trkpt lat="34.446188" lon="135.686847">
 <ele>761.1</ele>
 <time>2020-03-24T13:16:53Z</time>
</trkpt>
<trkpt lat="34.446085" lon="135.686675">
 <ele>755.7</ele>
 <time>2020-03-24T13:16:54Z</time>
</trkpt>
<trkpt lat="34.445974" lon="135.686428">
 <ele>749.3</ele>
 <time>2020-03-24T13:16:54Z</time>
</trkpt>
<trkpt lat="34.445896" lon="135.686310">
 <ele>746.8</ele>
 <time>2020-03-24T13:16:54Z</time>
</trkpt>
<trkpt lat="34.445802" lon="135.686203">
 <ele>742.7</ele>
 <time>2020-03-24T13:16:54Z</time>
</trkpt>
<trkpt lat="34.445733" lon="135.686160">
 <ele>739.6</ele>
 <time>2020-03-24T13:16:54Z</time>
</trkpt>
<trkpt lat="34.445673" lon="135.686096">
 <ele>737.4</ele>
 <time>2020-03-24T13:16:54Z</time>
</trkpt>
<trkpt lat="34.445562" lon="135.685956">
 <ele>728.2</ele>
 <time>2020-03-24T13:16:54Z</time>
</trkpt>
<trkpt lat="34.445433" lon="135.685731">
 <ele>719.1</ele>
 <time>2020-03-24T13:16:55Z</time>
</trkpt>
<trkpt lat="34.445536" lon="135.685667">
 <ele>721.6</ele>
 <time>2020-03-24T13:16:55Z</time>
</trkpt>
<trkpt lat="34.445587" lon="135.685602">
 <ele>719.8</ele>
 <time>2020-03-24T13:16:55Z</time>
</trkpt>
<trkpt lat="34.445656" lon="135.685484">
 <ele>716.2</ele>
 <time>2020-03-24T13:16:55Z</time>
</trkpt>
<trkpt lat="34.445716" lon="135.685409">
 <ele>717.1</ele>
 <time>2020-03-24T13:16:55Z</time>
</trkpt>
<trkpt lat="34.445750" lon="135.685334">
 <ele>713.8</ele>
 <time>2020-03-24T13:16:55Z</time>
</trkpt>
<trkpt lat="34.445836" lon="135.685184">
 <ele>712.1</ele>
 <time>2020-03-24T13:16:55Z</time>
</trkpt>
<trkpt lat="34.445896" lon="135.685044">
 <ele>719.7</ele>
 <time>2020-03-24T13:16:55Z</time>
</trkpt>
<trkpt lat="34.445871" lon="135.684969">
 <ele>720.6</ele>
 <time>2020-03-24T13:16:56Z</time>
</trkpt>
<trkpt lat="34.445845" lon="135.684883">
 <ele>721.5</ele>
 <time>2020-03-24T13:16:56Z</time>
</trkpt>
<trkpt lat="34.445793" lon="135.684830">
 <ele>720.6</ele>
 <time>2020-03-24T13:16:56Z</time>
</trkpt>
<trkpt lat="34.445750" lon="135.684755">
 <ele>720.7</ele>
 <time>2020-03-24T13:16:56Z</time>
</trkpt>
<trkpt lat="34.445716" lon="135.684647">
 <ele>719.1</ele>
 <time>2020-03-24T13:16:56Z</time>
</trkpt>
<trkpt lat="34.445742" lon="135.684572">
 <ele>718.5</ele>
 <time>2020-03-24T13:16:56Z</time>
</trkpt>
<trkpt lat="34.445793" lon="135.684486">
 <ele>721.7</ele>
 <time>2020-03-24T13:16:56Z</time>
</trkpt>
<trkpt lat="34.445879" lon="135.684390">
 <ele>722.6</ele>
 <time>2020-03-24T13:16:56Z</time>
</trkpt>
<trkpt lat="34.445896" lon="135.684315">
 <ele>720.5</ele>
 <time>2020-03-24T13:16:57Z</time>
</trkpt>
<trkpt lat="34.445853" lon="135.684197">
 <ele>714.2</ele>
 <time>2020-03-24T13:16:57Z</time>
</trkpt>
<trkpt lat="34.445896" lon="135.684143">
 <ele>713.3</ele>
 <time>2020-03-24T13:16:57Z</time>
</trkpt>
<trkpt lat="34.445811" lon="135.683993">
 <ele>703.1</ele>
 <time>2020-03-24T13:16:57Z</time>
</trkpt>
<trkpt lat="34.445759" lon="135.683864">
 <ele>694.5</ele>
 <time>2020-03-24T13:16:57Z</time>
</trkpt>
<trkpt lat="34.445699" lon="135.683757">
 <ele>685</ele>
 <time>2020-03-24T13:16:57Z</time>
</trkpt>
<trkpt lat="34.445699" lon="135.683682">
 <ele>678</ele>
 <time>2020-03-24T13:16:57Z</time>
</trkpt>
<trkpt lat="34.445708" lon="135.683607">
 <ele>674.6</ele>
 <time>2020-03-24T13:16:57Z</time>
</trkpt>
<trkpt lat="34.445708" lon="135.683499">
 <ele>662.1</ele>
 <time>2020-03-24T13:16:58Z</time>
</trkpt>
<trkpt lat="34.445716" lon="135.683414">
 <ele>653.8</ele>
 <time>2020-03-24T13:16:58Z</time>
</trkpt>
<trkpt lat="34.445708" lon="135.683349">
 <ele>649.9</ele>
 <time>2020-03-24T13:16:58Z</time>
</trkpt>
<trkpt lat="34.445656" lon="135.683285">
 <ele>643.4</ele>
 <time>2020-03-24T13:16:58Z</time>
</trkpt>
<trkpt lat="34.445605" lon="135.683263">
 <ele>644</ele>
 <time>2020-03-24T13:16:58Z</time>
</trkpt>
<trkpt lat="34.445544" lon="135.683210">
 <ele>637.8</ele>
 <time>2020-03-24T13:16:58Z</time>
</trkpt>
<trkpt lat="34.445476" lon="135.683167">
 <ele>634.9</ele>
 <time>2020-03-24T13:16:58Z</time>
</trkpt>
<trkpt lat="34.445381" lon="135.683167">
 <ele>635.7</ele>
 <time>2020-03-24T13:16:59Z</time>
</trkpt>
<trkpt lat="34.445347" lon="135.683102">
 <ele>632.5</ele>
 <time>2020-03-24T13:16:59Z</time>
</trkpt>
<trkpt lat="34.445313" lon="135.682963">
 <ele>624.7</ele>
 <time>2020-03-24T13:16:59Z</time>
</trkpt>
<trkpt lat="34.445347" lon="135.682899">
 <ele>619.4</ele>
 <time>2020-03-24T13:16:59Z</time>
</trkpt>
<trkpt lat="34.445441" lon="135.682770">
 <ele>609.1</ele>
 <time>2020-03-24T13:16:59Z</time>
</trkpt>
<trkpt lat="34.445570" lon="135.682652">
 <ele>597.2</ele>
 <time>2020-03-24T13:16:59Z</time>
</trkpt>
<trkpt lat="34.445690" lon="135.682705">
 <ele>600.9</ele>
 <time>2020-03-24T13:16:59Z</time>
</trkpt>
<trkpt lat="34.445776" lon="135.682705">
 <ele>600</ele>
 <time>2020-03-24T13:17:00Z</time>
</trkpt>
<trkpt lat="34.445862" lon="135.682673">
 <ele>598.9</ele>
 <time>2020-03-24T13:17:00Z</time>
</trkpt>
<trkpt lat="34.445896" lon="135.682577">
 <ele>597.5</ele>
 <time>2020-03-24T13:17:00Z</time>
</trkpt>
<trkpt lat="34.445879" lon="135.682512">
 <ele>595.7</ele>
 <time>2020-03-24T13:17:00Z</time>
</trkpt>
<trkpt lat="34.445811" lon="135.682469">
 <ele>591.9</ele>
 <time>2020-03-24T13:17:00Z</time>
</trkpt>
<trkpt lat="34.445733" lon="135.682405">
 <ele>588.1</ele>
 <time>2020-03-24T13:17:00Z</time>
</trkpt>
<trkpt lat="34.445665" lon="135.682330">
 <ele>584.3</ele>
 <time>2020-03-24T13:17:00Z</time>
</trkpt>
<trkpt lat="34.445536" lon="135.682212">
 <ele>577.3</ele>
 <time>2020-03-24T13:17:00Z</time>
</trkpt>
<trkpt lat="34.445536" lon="135.682137">
 <ele>578.5</ele>
 <time>2020-03-24T13:17:01Z</time>
</trkpt>
<trkpt lat="34.445476" lon="135.682062">
 <ele>573.7</ele>
 <time>2020-03-24T13:17:01Z</time>
</trkpt>
<trkpt lat="34.445364" lon="135.682062">
 <ele>568.5</ele>
 <time>2020-03-24T13:17:01Z</time>
</trkpt>
<trkpt lat="34.445278" lon="135.682030">
 <ele>565.5</ele>
 <time>2020-03-24T13:17:01Z</time>
</trkpt>
<trkpt lat="34.445175" lon="135.681987">
 <ele>563.2</ele>
 <time>2020-03-24T13:17:01Z</time>
</trkpt>
<trkpt lat="34.445064" lon="135.681976">
 <ele>563.1</ele>
 <time>2020-03-24T13:17:01Z</time>
</trkpt>
<trkpt lat="34.444995" lon="135.681912">
 <ele>558.6</ele>
 <time>2020-03-24T13:17:01Z</time>
</trkpt>
<trkpt lat="34.444926" lon="135.681976">
 <ele>563.2</ele>
 <time>2020-03-24T13:17:01Z</time>
</trkpt>
<trkpt lat="34.444849" lon="135.681922">
 <ele>560.7</ele>
 <time>2020-03-24T13:17:02Z</time>
</trkpt>
<trkpt lat="34.444823" lon="135.681826">
 <ele>557.2</ele>
 <time>2020-03-24T13:17:02Z</time>
</trkpt>
<trkpt lat="34.444798" lon="135.681751">
 <ele>555</ele>
 <time>2020-03-24T13:17:02Z</time>
</trkpt>
<trkpt lat="34.444789" lon="135.681665">
 <ele>551.4</ele>
 <time>2020-03-24T13:17:02Z</time>
</trkpt>
<trkpt lat="34.444772" lon="135.681568">
 <ele>549.5</ele>
 <time>2020-03-24T13:17:02Z</time>
</trkpt>
<trkpt lat="34.444712" lon="135.681482">
 <ele>549.2</ele>
 <time>2020-03-24T13:17:02Z</time>
</trkpt>
<trkpt lat="34.444626" lon="135.681450">
 <ele>550.7</ele>
 <time>2020-03-24T13:17:02Z</time>
</trkpt>
<trkpt lat="34.444566" lon="135.681375">
 <ele>551.3</ele>
 <time>2020-03-24T13:17:03Z</time>
</trkpt>
<trkpt lat="34.444523" lon="135.681311">
 <ele>548.9</ele>
 <time>2020-03-24T13:17:03Z</time>
</trkpt>
<trkpt lat="34.444446" lon="135.681289">
 <ele>548</ele>
 <time>2020-03-24T13:17:03Z</time>
</trkpt>
<trkpt lat="34.444377" lon="135.681289">
 <ele>545.5</ele>
 <time>2020-03-24T13:17:03Z</time>
</trkpt>
<trkpt lat="34.444326" lon="135.681311">
 <ele>543.5</ele>
 <time>2020-03-24T13:17:03Z</time>
</trkpt>
<trkpt lat="34.444240" lon="135.681354">
 <ele>543.6</ele>
 <time>2020-03-24T13:17:03Z</time>
</trkpt>
<trkpt lat="34.444154" lon="135.681343">
 <ele>542.2</ele>
 <time>2020-03-24T13:17:03Z</time>
</trkpt>
<trkpt lat="34.444111" lon="135.681407">
 <ele>540.7</ele>
 <time>2020-03-24T13:17:03Z</time>
</trkpt>
<trkpt lat="34.444094" lon="135.681515">
 <ele>542.5</ele>
 <time>2020-03-24T13:17:04Z</time>
</trkpt>
<trkpt lat="34.444017" lon="135.681536">
 <ele>538</ele>
 <time>2020-03-24T13:17:04Z</time>
</trkpt>
<trkpt lat="34.443922" lon="135.681643">
 <ele>530</ele>
 <time>2020-03-24T13:17:04Z</time>
</trkpt>
<trkpt lat="34.443957" lon="135.681772">
 <ele>530.6</ele>
 <time>2020-03-24T13:17:04Z</time>
</trkpt>
<trkpt lat="34.444034" lon="135.681847">
 <ele>533.9</ele>
 <time>2020-03-24T13:17:04Z</time>
</trkpt>
<trkpt lat="34.444042" lon="135.681922">
 <ele>533.7</ele>
 <time>2020-03-24T13:17:04Z</time>
</trkpt>
<trkpt lat="34.443982" lon="135.681997">
 <ele>533.5</ele>
 <time>2020-03-24T13:17:04Z</time>
</trkpt>
<trkpt lat="34.443879" lon="135.681976">
 <ele>530</ele>
 <time>2020-03-24T13:17:05Z</time>
</trkpt>
<trkpt lat="34.443751" lon="135.681944">
 <ele>524</ele>
 <time>2020-03-24T13:17:05Z</time>
</trkpt>
<trkpt lat="34.443648" lon="135.681912">
 <ele>518.8</ele>
 <time>2020-03-24T13:17:05Z</time>
</trkpt>
<trkpt lat="34.443588" lon="135.681965">
 <ele>517.2</ele>
 <time>2020-03-24T13:17:05Z</time>
</trkpt>
<trkpt lat="34.443528" lon="135.681778">
 <ele>516</ele>
 <time>2020-03-24T13:17:05Z</time>
</trkpt>
<trkpt lat="34.443708" lon="135.681214">
 <ele>509.5</ele>
 <time>2020-03-24T13:17:05Z</time>
</trkpt>
<trkpt lat="34.443948" lon="135.680495">
 <ele>502.3</ele>
 <time>2020-03-24T13:17:05Z</time>
</trkpt>
<trkpt lat="34.444120" lon="135.679927">
 <ele>498.8</ele>
 <time>2020-03-24T13:17:05Z</time>
</trkpt>
<trkpt lat="34.444120" lon="135.679798">
 <ele>497.5</ele>
 <time>2020-03-24T13:17:06Z</time>
</trkpt>
<trkpt lat="34.444042" lon="135.679562">
 <ele>494.1</ele>
 <time>2020-03-24T13:17:06Z</time>
</trkpt>
<trkpt lat="34.443931" lon="135.679347">
 <ele>490.7</ele>
 <time>2020-03-24T13:17:06Z</time>
</trkpt>
<trkpt lat="34.443725" lon="135.679122">
 <ele>487.8</ele>
 <time>2020-03-24T13:17:06Z</time>
</trkpt>
<trkpt lat="34.443373" lon="135.678940">
 <ele>484.3</ele>
 <time>2020-03-24T13:17:06Z</time>
</trkpt>
<trkpt lat="34.443167" lon="135.678983">
 <ele>483</ele>
 <time>2020-03-24T13:17:06Z</time>
</trkpt>
<trkpt lat="34.442918" lon="135.679036">
 <ele>480.6</ele>
 <time>2020-03-24T13:17:06Z</time>
</trkpt>
<trkpt lat="34.442806" lon="135.679025">
 <ele>481</ele>
 <time>2020-03-24T13:17:06Z</time>
</trkpt>
<trkpt lat="34.442746" lon="135.678918">
 <ele>480.1</ele>
 <time>2020-03-24T13:17:07Z</time>
</trkpt>
<trkpt lat="34.442764" lon="135.678789">
 <ele>479.8</ele>
 <time>2020-03-24T13:17:07Z</time>
</trkpt>
<trkpt lat="34.442832" lon="135.678693">
 <ele>479.7</ele>
 <time>2020-03-24T13:17:07Z</time>
</trkpt>
<trkpt lat="34.442995" lon="135.678564">
 <ele>478.6</ele>
 <time>2020-03-24T13:17:07Z</time>
</trkpt>
<trkpt lat="34.443296" lon="135.678414">
 <ele>475.2</ele>
 <time>2020-03-24T13:17:07Z</time>
</trkpt>
<trkpt lat="34.443691" lon="135.678317">
 <ele>470.4</ele>
 <time>2020-03-24T13:17:07Z</time>
</trkpt>
<trkpt lat="34.443828" lon="135.678242">
 <ele>469</ele>
 <time>2020-03-24T13:17:07Z</time>
</trkpt>
<trkpt lat="34.443948" lon="135.678071">
 <ele>466.9</ele>
 <time>2020-03-24T13:17:08Z</time>
</trkpt>
<trkpt lat="34.444197" lon="135.677631">
 <ele>463.4</ele>
 <time>2020-03-24T13:17:08Z</time>
</trkpt>
<trkpt lat="34.444334" lon="135.677330">
 <ele>460.3</ele>
 <time>2020-03-24T13:17:08Z</time>
</trkpt>
<trkpt lat="34.444351" lon="135.677169">
 <ele>459.3</ele>
 <time>2020-03-24T13:17:08Z</time>
</trkpt>
<trkpt lat="34.444343" lon="135.676783">
 <ele>456.5</ele>
 <time>2020-03-24T13:17:08Z</time>
</trkpt>
</trkseg>
</trk>
</gpx>

